sat.trackr.live / text

‹ back to catalog

ONEWEB-0651

NORAD 56080 · 2023-043AL

PAYLOAD ACTIVE UNKNOWN

§ Identity

Operator
Country
UK
Launch date
2023-03-26
Launch site
SRILR
Launch vehicle
Mass (kg)
RCS (m²)

Purposes: comms

External: N2YO · Heavens-Above · Gunter

§ Orbital elements

Epoch: 2026-05-25T03:37:31.939968Z

Period
109.46 min
Inclination
87.8987°
Eccentricity
0.0002164
Mean motion
13.15547655 rev/d
Perigee alt
1,200.1 km
Apogee alt
1,203.4 km
Semi-major
7,579.9 km
B*
4.3243e-4
RAAN
263.8114°
Arg perigee
99.7358°
Mean anomaly
260.4017°
Rev number
15,459

§ Raw data

ONEWEB-06511 56080U 23043AL  26145.15106412  .00000176  00000+0  43243-3 0  99912 56080  87.8987 263.8114 0002164  99.7358 260.4017 13.15547655154593

JSON: /api/v1/satellites/56080 · /tle

For live sub-satellite position, see the globe view (requires WebGL).

§ Visibility from observer

Set your observer location to see the next 7 days of passes ≥ 10°. The values pass through the URL so the page stays shareable.

No JS? Fill the form by hand. The geolocation button needs JavaScript.